NM5PB-13 Weather Reports


time (UTC)temp
C
wind
direction
speed
KPH
gust
KPH
rain 1hr
cm
rain 24hr
cm
rain mn
cm
humidity
%
barometer
mb
20260504141225 18 42 0.0 3.2 0.00 0.00 0.00 50 1001.0
20260504080824 6 0 0.0 0.0 0.00 0.00 0.00 85 1004.0
20260504050716 8 312 0.0 0.0 0.00 0.00 0.00 77 1006.0
20260504045212 8 6 0.0 0.0 0.00 0.00 0.00 74 1006.0
20260504043707 9 16 0.0 0.0 0.00 0.00 0.00 75 1006.0
20260504042202 10 326 0.0 0.0 0.00 0.00 0.00 73 1006.0
20260504040659 10 103 0.0 0.0 0.00 0.00 0.00 72 1006.0
20260504035155 10 84 0.0 0.0 0.00 0.00 0.00 68 1006.0
20260504033652 11 68 0.0 0.0 0.00 0.00 0.00 67 1007.0
20260504032148 12 182 0.0 1.6 0.00 0.00 0.00 67 1007.0
20260504030644 12 52 0.0 1.6 0.00 0.00 0.00 66 1007.0
20260504025139 13 68 0.0 0.0 0.00 0.00 0.00 64 1007.0
20260504023636 13 72 0.0 0.0 0.00 0.00 0.00 60 1006.0
20260504022131 15 85 0.0 0.0 0.00 0.00 0.00 52 1006.0
20260504020627 16 51 0.0 0.0 0.00 0.00 0.00 49 1006.0
20260504015124 17 113 0.0 0.0 0.00 0.00 0.00 45 1006.0
20260504013618 18 106 0.0 0.0 0.00 0.00 0.00 43 1006.0
20260504012114 19 38 0.0 1.6 0.00 0.00 0.00 40 1006.0
20260504010611 20 75 0.0 1.6 0.00 0.00 0.00 39 1006.0
20260504005109 21 134 0.0 1.6 0.00 0.00 0.00 37 1005.0
20260504003603 21 130 0.0 1.6 0.00 0.00 0.00 36 1005.0
20260504002100 22 124 1.6 3.2 0.00 0.00 0.00 35 1005.0
20260504000556 23 120 0.0 1.6 0.00 0.00 0.00 35 1005.0
20260503235052 23 104 1.6 3.2 0.00 0.00 0.00 34 1005.0
20260503233548 23 126 0.0 1.6 0.00 0.00 0.00 34 1005.0
20260503232043 23 128 0.0 1.6 0.00 0.00 0.00 35 1005.0
20260503230540 23 134 1.6 3.2 0.00 0.00 0.00 34 1005.0
20260503225035 23 136 1.6 3.2 0.00 0.00 0.00 33 1005.0
20260503223531 24 130 1.6 3.2 0.00 0.00 0.00 35 1005.0
20260503222026 24 134 1.6 1.6 0.00 0.00 0.00 36 1005.0
20260503220522 24 133 1.6 1.6 0.00 0.00 0.00 36 1005.0
20260503215018 24 124 1.6 1.6 0.00 0.00 0.00 35 1005.0
20260503213515 24 121 1.6 6.4 0.00 0.00 0.00 36 1005.0
20260503212012 25 132 1.6 3.2 0.00 0.00 0.00 38 1005.0
20260503210509 25 129 1.6 4.8 0.00 0.00 0.00 37 1005.0
20260503205003 25 133 0.0 1.6 0.00 0.00 0.00 37 1005.0
20260503203458 24 133 1.6 4.8 0.00 0.00 0.00 36 1005.0
20260503201955 25 127 1.6 3.2 0.00 0.00 0.00 38 1005.0
20260503200453 24 138 1.6 4.8 0.00 0.00 0.00 36 1005.0
20260503194947 24 76 1.6 3.2 0.00 0.00 0.00 37 1005.0
20260503193444 23 116 1.6 4.8 0.00 0.00 0.00 40 1005.0
20260503191940 23 118 1.6 3.2 0.00 0.00 0.00 41 1005.0
20260503190436 22 128 1.6 3.2 0.00 0.00 0.00 41 1006.0
20260503184930 22 116 1.6 1.6 0.00 0.00 0.00 44 1006.0
20260503183427 21 58 0.0 1.6 0.00 0.00 0.00 45 1006.0
20260503181923 21 93 1.6 3.2 0.00 0.00 0.00 45 1006.0
20260503180419 20 89 3.2 8.0 0.00 0.00 0.00 46 1006.0
20260503174916 20 29 3.2 8.0 0.00 0.00 0.00 46 1007.0
20260503173412 20 18 1.6 3.2 0.00 0.00 0.00 46 1007.0
20260503171907 18 36 1.6 4.8 0.00 0.00 0.00 46 1007.0
20260503170403 18 45 3.2 4.8 0.00 0.00 0.00 47 1007.0